Location: Homewood
(41.1836°S, 175.9581°E)
Time: 09:10:26
(UTC+00:00)

SL-4 R/B - Visible Passes

Search period start: 19 July 2024 00:00
Search period end: 29 July 2024 00:00
Orbit: 411 x 597 km, 51.6° (Epoch: 18 July)

Date Brightness Start Highest point End Pass type
(mag) Time Alt. Az. Time Alt. Az. Time Alt. Az.
19 Jul 3.3 06:59:30 10° W 07:03:24 34° SSW 07:04:34 29° S visible
20 Jul 3.4 06:39:13 10° W 06:43:05 33° SSW 06:45:10 21° SSE visible
20 Jul 5.1 08:19:28 10° SW 08:19:52 12° SW 08:19:52 12° SW visible
21 Jul 3.4 06:18:54 10° W 06:22:43 32° SSW 06:25:43 15° SE visible
21 Jul 4.7 07:59:08 10° SW 08:00:25 15° SW 08:00:25 15° SW visible
22 Jul 3.4 05:58:33 10° W 06:02:18 31° SSW 06:06:12 10° SE visible
22 Jul 4.3 07:38:45 10° SW 07:40:54 19° SSW 07:40:54 19° SSW visible
23 Jul 3.4 05:38:10 10° W 05:41:52 30° SSW 05:45:46 10° SE visible
23 Jul 4.0 07:18:21 10° SW 07:21:20 20° S 07:21:20 20° S visible
24 Jul 3.8 06:57:54 10° SW 07:01:10 20° S 07:01:44 20° SSE visible
25 Jul 3.9 06:37:25 10° SW 06:40:40 20° S 06:42:07 17° SSE visible
25 Jul 5.0 08:16:22 10° SW 08:16:49 12° SW 08:16:49 12° SW visible
26 Jul 3.8 06:16:54 10° SW 06:20:07 20° S 06:22:30 14° SE visible
26 Jul 4.4 07:55:48 10° SW 07:57:11 18° SSW 07:57:11 18° SSW visible
27 Jul 3.8 05:56:21 10° SW 05:59:32 20° S 06:02:50 10° SE visible
27 Jul 3.8 07:35:13 10° SW 07:37:34 26° SSW 07:37:34 26° SSW visible
28 Jul 3.2 07:14:35 10° SW 07:17:59 33° S 07:17:59 33° S visible
